Location: Peterborough
(44.3048°N, 78.3199°W)
Time: 04:54:04
(UTC-04:00)

ISS - Visible Passes

Search period start: 12 May 2025 00:00
Search period end: 22 May 2025 00:00
Orbit: 416 x 420 km, 51.6° (Epoch: 12 May)

Date Brightness Start Highest point End Pass type
(mag) Time Alt. Az. Time Alt. Az. Time Alt. Az.
12 May -1.3 00:02:50 10° WNW 00:05:34 22° N 00:06:57 18° NNE visible
12 May -3.1 21:36:55 10° WSW 21:40:13 58° NNW 21:43:34 10° NE visible
12 May -1.4 23:14:41 10° WNW 23:17:29 24° N 23:20:17 10° NE visible
13 May -1.2 00:52:01 10° NW 00:53:43 22° NNW 00:53:43 22° NNW visible
13 May -1.5 22:26:29 10° WNW 22:29:24 27° NNW 22:32:19 10° NE visible
14 May -1.6 00:04:03 10° NW 00:06:53 24° N 00:07:26 23° NNE visible
14 May -1.9 21:38:14 10° W 21:41:18 32° NNW 21:44:23 10° NE visible
14 May -1.4 23:16:01 10° NW 23:18:45 23° N 23:21:05 12° NE visible
15 May -1.2 00:52:51 10° NW 00:53:59 19° NW 00:53:59 19° NW visible
15 May -1.3 22:27:52 10° WNW 22:30:36 23° N 22:33:21 10° NE visible
16 May -2.0 00:04:56 10° NW 00:07:36 32° N 00:07:36 32° N visible
16 May -1.4 21:39:38 10° WNW 21:42:26 24° N 21:45:15 10° NE visible
16 May -1.8 23:16:58 10° NW 23:19:55 27° NNE 23:21:12 21° NE visible
17 May -0.9 00:53:37 10° WNW 00:54:06 13° WNW 00:54:06 13° WNW visible
17 May -1.6 22:28:56 10° NW 22:31:45 24° N 22:34:34 10° ENE visible
18 May -2.1 00:05:38 10° NW 00:07:41 33° NW 00:07:41 33° NW visible
18 May -1.5 21:40:48 10° NW 21:43:33 23° N 21:46:18 10° ENE visible
18 May -2.8 23:17:39 10° NW 23:20:54 43° NNE 23:21:16 41° NE visible
19 May -2.2 22:29:40 10° NW 22:32:45 33° NNE 22:34:50 17° ENE visible
20 May -1.6 00:06:22 10° WNW 00:07:45 22° WNW 00:07:45 22° WNW visible
20 May -1.9 21:41:38 10° NW 21:44:34 27° NNE 21:47:30 10° ENE visible
20 May -3.6 23:18:16 10° WNW 23:21:19 71° WNW 23:21:19 71° WNW visible
21 May -3.4 22:30:13 10° NW 22:33:34 60° NNE 22:34:55 31° E visible
